Back to catalog

COSMOS 1994

AliveMilitaryPO
NORAD 19785·PAYLOAD·🇷🇺 Russia

Launched Feb 10, 1989 from Plesetsk Cosmodrome

Loading…

Next Passes (next 24 hours)

TLE

FreshSource: Space-Track

Epoch: Sep 14, 2026, 13:20 UTC

1 19785U 89009A   26257.55580147  .00000017  00000-0  35177-4 0  9998
2 19785  82.6187 294.8780 0014113 105.5119  49.5331 12.64344306734679

Track COSMOS 1994 in real time with AllMySat

Download on the App Store